Location: Cahas Mountain Overlook
(37.0833°N, 80.1000°W)
Time: 19:40:52
(UTC-04:00)

Tiros 1 - Pass Details

Date: 15 February 2026
Orbit: 618 x 649 km, 48.4° (Epoch: 13 March)

Event Time Altitude Azimuth Distance (km) Brightness Sun altitude
Rises 13:54:32 0° 306° (NW) 2,889 10.4 37.0°
Reaches altitude 10° 13:57:13 10° 320° (NW) 1,979 9.5 36.8°
Maximum altitude 14:00:57 25° 15° (NNE) 1,265 8.4 36.4°
Drops below altitude 10° 14:04:41 10° 71° (ENE) 1,976 9.4 36.1°
Sets 14:07:21 0° 85° (E) 2,882 10.2 35.9°
